FW8496 Weather Reports


Display with metric or nautical units.
time (UTC)temp
F
wind
direction
speed
MPH
gust
MPH
rain 1hr
in
rain 24hr
in
rain mn
in
humidity
%
barometer
mb
20210421153251 36 211 10.0 24.0 0.00 0.00 0.00 51 1019.7
20210421143342 34 165 10.0 21.0 0.00 0.00 0.00 55 1019.8
20210421134701 33 194 8.0 17.0 0.00 0.00 0.00 55 1019.7
20210421133218 32 169 10.0 19.0 0.00 0.00 0.00 56 1019.7
20210421131638 32 149 9.0 19.0 0.00 0.00 0.00 56 1019.5
20210421123648 32 157 9.0 17.0 0.00 0.00 0.00 56 1019.5
20210421122229 32 191 6.0 16.0 0.00 0.00 0.00 55 1019.5
20210421114628 32 165 8.0 21.0 0.00 0.00 0.00 55 1019.1
20210421113319 32 206 10.0 17.0 0.00 0.00 0.00 55 1018.9
20210421111750 32 202 9.0 21.0 0.00 0.00 0.00 54 1018.7
20210421104642 33 178 7.0 16.0 0.00 0.00 0.00 53 1018.7
20210421103139 33 168 8.0 17.0 0.00 0.00 0.00 52 1018.9
20210421101654 33 196 8.0 18.0 0.00 0.00 0.00 52 1018.9
20210421094830 34 161 6.0 15.0 0.00 0.00 0.00 51 1019.0
20210421093106 34 177 7.0 17.0 0.00 0.00 0.00 50 1018.9
20210421091623 34 182 6.0 16.0 0.00 0.00 0.00 49 1018.9
20210421085059 35 175 8.0 19.0 0.00 0.00 0.00 47 1018.9
20210421083207 36 158 10.0 17.0 0.00 0.00 0.00 47 1019.0
20210421081652 36 141 10.0 24.0 0.00 0.00 0.00 47 1019.1
20210421074556 37 137 11.0 22.0 0.00 0.00 0.00 45 1019.3
20210421073313 37 151 10.0 20.0 0.00 0.00 0.00 45 1019.2
20210421071637 37 179 9.0 18.0 0.00 0.00 0.00 44 1019.3
20210421064643 38 139 10.0 21.0 0.00 0.00 0.00 44 1019.4
20210421063127 38 161 8.0 21.0 0.00 0.00 0.00 44 1019.3
20210421061647 37 171 9.0 24.0 0.00 0.00 0.00 44 1019.2
20210421054616 37 156 10.0 22.0 0.00 0.00 0.00 44 1019.0
20210421053204 37 155 9.0 23.0 0.00 0.00 0.00 44 1018.8
20210421051915 37 194 7.0 21.0 0.00 0.00 0.00 44 1018.8
20210421050120 37 193 11.0 22.0 0.00 0.00 0.00 44 1018.7
20210421044549 37 142 10.0 24.0 0.00 0.00 0.00 44 1018.6
20210421043113 38 163 8.0 19.0 0.00 0.00 0.00 44 1018.5
20210421041642 39 157 8.0 17.0 0.00 0.00 0.00 43 1018.4
20210421040134 39 171 5.0 11.0 0.00 0.00 0.00 43 1018.2
20210421034639 40 169 7.0 15.0 0.00 0.00 0.00 42 1017.6
20210421033212 41 168 5.0 14.0 0.00 0.00 0.00 41 1017.7
20210421031649 41 132 5.0 18.0 0.00 0.00 0.00 41 1017.5
20210421030141 41 163 8.0 17.0 0.00 0.00 0.00 41 1017.2
20210421024636 41 198 7.0 17.0 0.00 0.00 0.00 41 1017.4
20210421023214 42 155 9.0 20.0 0.00 0.00 0.00 41 1017.2
20210421021557 43 132 9.0 18.0 0.00 0.00 0.00 40 1017.3
20210421020133 44 180 8.0 18.0 0.00 0.00 0.00 39 1017.0
20210421014647 45 139 6.0 17.0 0.00 0.00 0.00 38 1016.7
20210421013148 45 189 5.0 13.0 0.00 0.00 0.00 39 1016.3
20210421011643 45 149 7.0 18.0 0.00 0.00 0.00 39 1016.2
20210421010106 46 156 9.0 22.0 0.00 0.00 0.00 38 1016.5
20210421004637 47 144 8.0 19.0 0.00 0.00 0.00 36 1016.4
20210421003056 48 163 9.0 19.0 0.00 0.00 0.00 35 1016.6
20210421001601 49 136 7.0 20.0 0.00 0.00 0.00 34 1016.1
20210421000121 50 114 11.0 21.0 0.00 0.00 0.00 33 1016.1
20210420234708 51 82 12.0 23.0 0.00 0.00 0.00 33 1015.7
20210420233146 52 142 12.0 22.0 0.00 0.00 0.00 31 1015.7
20210420231623 53 154 12.0 24.0 0.00 0.00 0.00 30 1015.6
20210420230157 55 190 9.0 21.0 0.00 0.00 0.00 28 1015.5
20210420224627 56 158 10.0 21.0 0.00 0.00 0.00 27 1015.3
20210420223122 56 151 9.0 19.0 0.00 0.00 0.00 26 1015.5
20210420221621 56 163 8.0 17.0 0.00 0.00 0.00 27 1015.7
20210420220131 56 161 9.0 22.0 0.00 0.00 0.00 27 1015.7
20210420214647 55 170 11.0 24.0 0.00 0.00 0.00 27 1016.0
20210420213119 55 196 10.0 20.0 0.00 0.00 0.00 27 1016.4
20210420211608 55 194 9.0 24.0 0.00 0.00 0.00 27 1016.5
20210420210221 54 187 11.0 20.0 0.00 0.00 0.00 28 1016.7
20210420204634 53 187 12.0 23.0 0.00 0.00 0.00 30 1016.9
20210420203104 53 203 11.0 23.0 0.00 0.00 0.00 30 1017.0
20210420201613 53 126 12.0 24.0 0.00 0.00 0.00 30 1017.2
20210420200052 50 167 13.0 21.0 0.00 0.00 0.00 33 1017.3
20210420194614 51 144 13.0 23.0 0.00 0.00 0.00 32 1017.5
20210420193054 49 171 11.0 24.0 0.00 0.00 0.00 34 1017.7
20210420191642 50 182 11.0 32.0 0.00 0.00 0.00 33 1017.4
20210420190213 48 167 11.0 24.0 0.00 0.00 0.00 35 1017.7
20210420184622 48 161 11.0 23.0 0.00 0.00 0.00 36 1017.9
20210420183128 47 150 11.0 29.0 0.00 0.00 0.00 36 1018.0
20210420181613 46 163 13.0 25.0 0.00 0.00 0.00 38 1018.1
20210420180201 46 183 11.0 23.0 0.00 0.00 0.00 39 1018.1
20210420174631 44 308 10.0 24.0 0.00 0.00 0.00 41 1018.1
20210420173218 44 117 11.0 22.0 0.00 0.00 0.00 40 1018.1
20210420171628 43 178 10.0 24.0 0.00 0.00 0.00 41 1018.2
20210420170417 43 166 9.0 25.0 0.00 0.00 0.00 42 1018.2
20210420164649 42 161 13.0 26.0 0.00 0.00 0.00 44 1018.1
20210420163235 42 138 12.0 23.0 0.00 0.00 0.00 44 1018.0